Home > Weather > Rio de Janeiro > Past weeks

Flag for Brazil Weather for the Past 2 Weeks in Rio de Janeiro, Rio de Janeiro, Brazil

Now
70 °F

Passing clouds.


Feels Like: 70 °F
Forecast: 70 / 82 °F
Wind: 2 mph from Southeast

Location: Rio De Janeiro Airport

Current Time: May 6, 2016 at 2:46:45 AM

Latest Report: May 6, 2016 at 2:00 AM


Visibility: N/A

Pressure: 30.09 "Hg

Humidity: 94%

Dew Point: 68 °F

Location of Rio de JaneiroLocation

Historic Weather in Rio de Janeiro — Graph

°F

Rio de Janeiro Temperature Yesterday

Maximum temperature yesterday: 82 °F (at 1:00 PM)
Minimum temperature yesterday: 70 °F (at 2:00 AM)
Average temperature yesterday: 74 °F

High & Low Weather Summary for the Past Weeks

 TemperatureHumidityPressure
High95 °F (Apr 22, 12:00 PM)100% (Apr 27, 3:00 AM)30.18 "Hg (Apr 27, 3:00 AM)
Low64 °F (May 2, 3:00 AM)41% (Apr 22, 12:00 PM)29.68 "Hg (Apr 26, 5:00 AM)
Average76 °F75%29.96 "Hg
* Reported Apr 21 1:00 AM — May 6 1:00 AM, Rio de Janeiro, Weather by CustomWeather, © 2016

Note: Actual official high and low records may vary slightly from our data, if they occured in-between our weather recording intervals... More about our weather records

Advertising

Rio de Janeiro Weather History for the Previous 24 Hours

Scroll right to see more
 ConditionsComfort  
Time TempWeatherWind HumidityBarometerVisibility
1:00 AM
Fri, May 6
70 °FPassing clouds.1 mph94%30.09 "HgN/A
12:00 AM72 °FPassing clouds.2 mph94%30.12 "HgN/A
11:00 PM
Thu, May 5
72 °FPassing clouds.2 mph88%30.12 "HgN/A
10:00 PM72 °FPassing clouds.2 mph88%30.12 "HgN/A
9:00 PM72 °FPassing clouds.3 mph88%30.12 "HgN/A
8:00 PM73 °FPassing clouds.7 mph78%30.09 "HgN/A
7:00 PM75 °FPassing clouds.9 mph74%30.09 "HgN/A
6:00 PM75 °FPassing clouds.7 mph74%30.09 "HgN/A
5:00 PM75 °FPassing clouds.9 mph74%30.07 "HgN/A
4:00 PM77 °FPartly sunny.10 mph74%30.07 "HgN/A
3:00 PM77 °FBroken clouds.10 mph74%30.07 "HgN/A
2:00 PM77 °FBroken clouds.10 mph74%30.07 "Hg6 mi
1:00 PM82 °FBroken clouds.9 mph58%30.07 "Hg6 mi
12:00 PM81 °FBroken clouds.8 mph66%30.09 "Hg6 mi
11:00 AM77 °FBroken clouds.3 mph79%30.12 "Hg4 mi
10:00 AM75 °FBroken clouds.3 mph78%30.12 "Hg5 mi
9:00 AM73 °FBroken clouds.3 mph83%30.12 "Hg5 mi
8:00 AM72 °FBroken clouds.6 mph88%30.09 "Hg4 mi
7:00 AM72 °FPartly sunny.6 mph88%30.07 "HgN/A
6:00 AM70 °FScattered clouds.2 mph88%30.07 "HgN/A
5:00 AM70 °FPassing clouds.5 mph88%30.04 "HgN/A
4:00 AM72 °FPassing clouds.2 mph88%30.04 "HgN/A
3:00 AM72 °FPassing clouds.2 mph88%30.04 "HgN/A
2:00 AM70 °FPassing clouds.2 mph94%30.07 "HgN/A
Weather by CustomWeather, © 2016

See weather overviewHow to use our weather pages